Showing default

RASSVET-3 15, 68374

Orbit data source: Space-Track

RASSVET-3 15, 68374 is a payload satellite owned by Byuro 1440 (CIS) in LEO that was launched on Mon, 23 Mar 2026 UTC via a SOYUZ-2-1B launch vehicle from the Plesetsk Missile And Space Complex (PKMTR). Payload-class satellites include a variety of spacecraft equipped with specific instruments for various scientific and technological missions. These include communications satellites like Starlink; space stations such as the ISS; scientific satellites like the Hubble; Earth observation satellites from companies like Planet Labs, Umbra, and HawkEye 360; GPS; miniature CubeSats for education and research; and military/defense satellites.

Loading next visibility...
Identifier
68374, 2026-061Q
Orbit
LEO
Country
Flag of CISCIS
Related business
Manufacturer
Byuro 1440
Mission
Operational spacecraft
Bus & Motor
RASSVET-2, Unknown motor
Mass
~370 kg wet, ~370 kg dry
Launch date (UTC)
2026-03-23 (3 months ago)
Launch vehicle
SOYUZ-2-1B
Launch site
Plesetsk Missile And Space Complex (PKMTR)
Object type
Payload
Rocket body
Debris
Shape & HBR
Unknown shape, 1.8 m
Radar Cross Section
Large (>1 m²)

Expand to show TLE details & history
Last TLE update: 7 hours ago

TLE from 7 hours ago
0 RASSVET-3 15
1 68374U 26061Q   26169.86695380 -.00296730  00000-0 -32540-2 0  9997
2 68374  82.2944  10.6703 0002745 168.9026 191.2293 15.64133830 13809
Epoch: 2026-06-18T20:48Z
TLE epoch observation values (Epoch: 2026-06-18T20:48:24.808Z)
Latitude
-0.00003°
Longitude
151.4628°
Altitude
380.691 km
Speed
7.68 km/s
True Right ascension
00h 42m 40s
True Declination
0° 00' 00"
Sunlit
Object was in daylight at epoch
Visualization orbit readout
Latitude
Unknown
Longitude
Unknown
Altitude
Unknown
Speed
Unknown
Apparent Right ascension
Unknown
Apparent Declination
Unknown
Sunlit
N/A
Visualization observer readout
Local Sidereal Time
15:06:11
Azimuth
Unknown
Elevation
Unknown
Doppler factor
Unknown
Orbital elements
Apogee altitude
374.505 km
Perigee altitude
370.798 km
Semi-major axis
6,750.789 km
Eccentricity
0.00027
Inclination
82.2944°
RAAN
10.6703°
Arg. of periapsis
168.9026°
True anomaly
191.22318°
Mean anomaly
191.2293°
Eccentric anomaly
191.22624°
Mean motion
3.91301 °/min
Orbital period
92 mins
BSTAR
-0.003254
Loading maneuver chart data...
Computing Atmospheric mass density...
Loading historical data...
Loading historical data...
Loading historical data...
Loading historical data...
Loading historical data...
Loading historical data...
Loading historical data...

Documentation

Showing up to 5 results
|